timestamp,wind_dir_avg,wind_spd_max_dir,wind_spd_avg,wind_spd_gust,battery_voltage,lat,long
2018-04-21 00:00:00+00:00,229.0,231.0,15.47,17.44,,47.59359,-54.27349
2018-04-21 00:10:00+00:00,228.0,230.0,17.15,20.01,,47.59359,-54.27349
2018-04-21 00:20:00+00:00,230.0,233.0,16.6,18.88,,47.59359,-54.27349
2018-04-21 00:30:00+00:00,227.0,232.0,15.52,18.77,,47.59359,-54.27349
2018-04-21 00:40:00+00:00,231.0,234.0,16.69,19.92,,47.59359,-54.27349
2018-04-21 00:50:00+00:00,229.0,231.0,16.72,20.02,,47.59359,-54.27349
2018-04-21 01:00:00+00:00,228.0,227.0,16.22,18.46,,47.59359,-54.27349
2018-04-21 01:10:00+00:00,230.0,232.0,17.75,21.46,,47.59359,-54.27349
2018-04-21 01:20:00+00:00,231.0,236.0,15.93,20.35,,47.59359,-54.27349
2018-04-21 01:30:00+00:00,231.0,230.0,16.2,19.97,,47.59359,-54.27349
2018-04-21 01:40:00+00:00,235.0,229.0,13.69,16.28,,47.59359,-54.27349
2018-04-21 01:50:00+00:00,235.0,242.0,14.12,17.56,,47.59359,-54.27349
2018-04-21 02:00:00+00:00,235.0,239.0,14.24,15.72,,47.59359,-54.27349
2018-04-21 02:10:00+00:00,244.0,240.0,13.58,17.83,,47.59359,-54.27349
2018-04-21 02:20:00+00:00,239.0,232.0,12.06,15.34,,47.59359,-54.27349
2018-04-21 02:30:00+00:00,243.0,240.0,14.23,16.66,,47.59359,-54.27349
2018-04-21 02:40:00+00:00,244.0,248.0,12.72,16.69,,47.59359,-54.27349
2018-04-21 02:50:00+00:00,241.0,243.0,12.99,15.53,,47.59359,-54.27349
2018-04-21 03:00:00+00:00,242.0,246.0,12.17,15.02,,47.59359,-54.27349
2018-04-21 03:10:00+00:00,244.0,249.0,12.9,15.12,,47.59359,-54.27349
2018-04-21 03:20:00+00:00,243.0,240.0,13.33,15.52,,47.59359,-54.27349
2018-04-21 03:30:00+00:00,248.0,253.0,12.49,16.01,,47.59359,-54.27349
2018-04-21 03:40:00+00:00,244.0,251.0,11.82,14.15,,47.59359,-54.27349
2018-04-21 03:50:00+00:00,243.0,242.0,13.21,15.34,,47.59359,-54.27349
2018-04-21 04:00:00+00:00,250.0,248.0,12.96,14.92,,47.59359,-54.27349
2018-04-21 04:10:00+00:00,248.0,244.0,12.76,14.77,,47.59359,-54.27349
2018-04-21 04:20:00+00:00,254.0,250.0,13.27,15.09,,47.59359,-54.27349
2018-04-21 04:30:00+00:00,252.0,258.0,13.0,15.37,,47.59359,-54.27349
2018-04-21 04:40:00+00:00,256.0,255.0,12.8,15.06,,47.59359,-54.27349
2018-04-21 04:50:00+00:00,256.0,259.0,14.04,15.8,,47.59359,-54.27349
2018-04-21 05:00:00+00:00,258.0,261.0,13.61,15.64,,47.59359,-54.27349
2018-04-21 05:10:00+00:00,257.0,256.0,13.63,15.76,,47.59359,-54.27349
2018-04-21 05:20:00+00:00,251.0,251.0,14.81,17.12,,47.59359,-54.27349
2018-04-21 05:30:00+00:00,255.0,259.0,13.53,15.68,,47.59359,-54.27349
2018-04-21 05:40:00+00:00,260.0,263.0,13.08,15.08,,47.59359,-54.27349
2018-04-21 05:50:00+00:00,260.0,263.0,12.31,13.58,,47.59359,-54.27349
2018-04-21 06:00:00+00:00,263.0,263.0,11.83,13.21,,47.59359,-54.27349
2018-04-21 06:10:00+00:00,261.0,264.0,12.19,13.57,,47.59359,-54.27349
2018-04-21 06:20:00+00:00,265.0,266.0,9.73,11.35,,47.59359,-54.27349
2018-04-21 06:30:00+00:00,258.0,260.0,10.5,11.55,,47.59359,-54.27349
2018-04-21 06:40:00+00:00,257.0,258.0,9.5,11.1,,47.59359,-54.27349
2018-04-21 06:50:00+00:00,264.0,266.0,10.95,11.99,,47.59359,-54.27349
2018-04-21 07:00:00+00:00,262.0,268.0,10.97,12.45,,47.59359,-54.27349
2018-04-21 07:10:00+00:00,268.0,266.0,11.03,12.85,,47.59359,-54.27349
2018-04-21 07:20:00+00:00,269.0,273.0,10.42,11.67,,47.59359,-54.27349
2018-04-21 07:30:00+00:00,266.0,266.0,10.15,11.78,,47.59359,-54.27349
2018-04-21 07:40:00+00:00,264.0,276.0,11.86,13.92,,47.59359,-54.27349
2018-04-21 07:50:00+00:00,263.0,259.0,10.29,12.18,,47.59359,-54.27349
2018-04-21 08:00:00+00:00,270.0,271.0,10.67,12.28,,47.59359,-54.27349
2018-04-21 08:10:00+00:00,268.0,272.0,9.74,11.12,,47.59359,-54.27349
2018-04-21 08:20:00+00:00,270.0,270.0,10.17,11.41,,47.59359,-54.27349
2018-04-21 08:30:00+00:00,271.0,274.0,9.66,10.88,,47.59359,-54.27349
2018-04-21 08:40:00+00:00,279.0,275.0,8.93,10.19,,47.59359,-54.27349
2018-04-21 08:50:00+00:00,275.0,271.0,8.98,9.82,,47.59359,-54.27349
2018-04-21 09:00:00+00:00,271.0,273.0,9.28,10.77,,47.59359,-54.27349
2018-04-21 09:10:00+00:00,270.0,275.0,8.58,9.79,,47.59359,-54.27349
2018-04-21 09:20:00+00:00,266.0,264.0,6.99,7.92,,47.59359,-54.27349
2018-04-21 09:30:00+00:00,258.0,256.0,6.29,7.27,,47.59359,-54.27349
2018-04-21 09:40:00+00:00,260.0,259.0,6.22,7.38,,47.59359,-54.27349
2018-04-21 09:50:00+00:00,253.0,248.0,6.37,7.39,,47.59359,-54.27349
2018-04-21 10:00:00+00:00,257.0,256.0,6.83,7.51,,47.59359,-54.27349
2018-04-21 10:10:00+00:00,252.0,254.0,7.18,8.22,,47.59359,-54.27349
2018-04-21 10:20:00+00:00,250.0,254.0,6.41,7.16,,47.59359,-54.27349
2018-04-21 10:30:00+00:00,252.0,254.0,6.95,7.65,,47.59359,-54.27349
2018-04-21 10:40:00+00:00,254.0,250.0,6.97,7.64,,47.59359,-54.27349
2018-04-21 10:50:00+00:00,258.0,253.0,6.7,7.33,,47.59359,-54.27349
2018-04-21 11:00:00+00:00,273.0,278.0,7.2,8.01,,47.59359,-54.27349
2018-04-21 11:10:00+00:00,279.0,283.0,6.4,7.73,,47.59359,-54.27349
2018-04-21 11:20:00+00:00,275.0,279.0,6.89,7.77,,47.59359,-54.27349
2018-04-21 11:30:00+00:00,275.0,274.0,8.81,9.95,,47.59359,-54.27349
2018-04-21 11:40:00+00:00,277.0,273.0,8.33,9.36,,47.59359,-54.27349
2018-04-21 11:50:00+00:00,284.0,291.0,9.41,11.3,,47.59359,-54.27349
2018-04-21 12:00:00+00:00,273.0,279.0,10.17,12.4,,47.59359,-54.27349
2018-04-21 12:10:00+00:00,287.0,289.0,9.82,10.63,,47.59359,-54.27349
2018-04-21 12:20:00+00:00,274.0,273.0,9.32,10.43,,47.59359,-54.27349
2018-04-21 12:30:00+00:00,286.0,284.0,9.06,10.18,,47.59359,-54.27349
2018-04-21 12:40:00+00:00,284.0,281.0,9.66,10.91,,47.59359,-54.27349
2018-04-21 12:50:00+00:00,288.0,289.0,9.33,11.06,,47.59359,-54.27349
2018-04-21 13:00:00+00:00,284.0,281.0,10.11,11.81,,47.59359,-54.27349
2018-04-21 13:10:00+00:00,284.0,292.0,11.17,13.43,,47.59359,-54.27349
2018-04-21 13:20:00+00:00,282.0,280.0,11.44,12.9,,47.59359,-54.27349
2018-04-21 13:30:00+00:00,286.0,286.0,9.69,11.11,,47.59359,-54.27349
2018-04-21 13:40:00+00:00,292.0,295.0,8.75,9.89,,47.59359,-54.27349
2018-04-21 13:50:00+00:00,286.0,284.0,11.27,12.85,,47.59359,-54.27349
2018-04-21 14:00:00+00:00,277.0,278.0,10.4,12.21,,47.59359,-54.27349
2018-04-21 14:10:00+00:00,283.0,283.0,10.04,11.72,,47.59359,-54.27349
2018-04-21 14:20:00+00:00,276.0,279.0,10.71,12.04,,47.59359,-54.27349
2018-04-21 14:30:00+00:00,272.0,277.0,10.83,12.33,,47.59359,-54.27349
2018-04-21 14:40:00+00:00,277.0,280.0,11.78,13.25,,47.59359,-54.27349
2018-04-21 14:50:00+00:00,284.0,290.0,10.03,12.14,,47.59359,-54.27349
2018-04-21 15:00:00+00:00,279.0,284.0,10.31,11.25,,47.59359,-54.27349
2018-04-21 15:10:00+00:00,287.0,288.0,9.29,10.17,,47.59359,-54.27349
2018-04-21 15:20:00+00:00,277.0,279.0,9.93,11.66,,47.59359,-54.27349
2018-04-21 15:30:00+00:00,275.0,276.0,8.81,10.16,,47.59359,-54.27349
2018-04-21 15:40:00+00:00,279.0,282.0,9.31,10.32,,47.59359,-54.27349
2018-04-21 15:50:00+00:00,266.0,265.0,9.17,10.54,,47.59359,-54.27349
2018-04-21 16:00:00+00:00,280.0,286.0,9.15,10.65,,47.59359,-54.27349
2018-04-21 16:10:00+00:00,276.0,282.0,8.71,10.55,,47.59359,-54.27349
2018-04-21 16:20:00+00:00,280.0,276.0,7.27,7.88,,47.59359,-54.27349
2018-04-21 16:30:00+00:00,276.0,271.0,9.45,10.93,,47.59359,-54.27349
2018-04-21 16:40:00+00:00,271.0,268.0,10.14,11.46,,47.59359,-54.27349
2018-04-21 16:50:00+00:00,287.0,286.0,10.75,12.44,,47.59359,-54.27349
2018-04-21 17:00:00+00:00,264.0,268.0,9.03,11.01,,47.59359,-54.27349
2018-04-21 17:10:00+00:00,277.0,283.0,8.18,9.28,,47.59359,-54.27349
2018-04-21 17:20:00+00:00,271.0,268.0,10.79,12.72,,47.59359,-54.27349
2018-04-21 17:30:00+00:00,263.0,264.0,9.58,10.53,,47.59359,-54.27349
2018-04-21 17:40:00+00:00,271.0,277.0,9.34,11.25,,47.59359,-54.27349
2018-04-21 17:50:00+00:00,277.0,278.0,8.87,9.89,,47.59359,-54.27349
2018-04-21 18:00:00+00:00,277.0,279.0,7.8,9.07,,47.59359,-54.27349
2018-04-21 18:10:00+00:00,271.0,272.0,8.79,9.9,,47.59359,-54.27349
2018-04-21 18:20:00+00:00,276.0,276.0,7.42,8.77,,47.59359,-54.27349
2018-04-21 18:30:00+00:00,268.0,274.0,9.51,11.46,,47.59359,-54.27349
2018-04-21 18:40:00+00:00,266.0,266.0,9.39,10.7,,47.59359,-54.27349
2018-04-21 18:50:00+00:00,270.0,257.0,8.13,10.26,,47.59359,-54.27349
2018-04-21 19:00:00+00:00,274.0,273.0,10.42,11.52,,47.59359,-54.27349
2018-04-21 19:10:00+00:00,275.0,276.0,10.46,11.43,,47.59359,-54.27349
2018-04-21 19:20:00+00:00,273.0,275.0,10.94,12.63,,47.59359,-54.27349
2018-04-21 19:30:00+00:00,277.0,281.0,9.72,10.93,,47.59359,-54.27349
2018-04-21 19:40:00+00:00,269.0,276.0,10.71,12.54,,47.59359,-54.27349
2018-04-21 19:50:00+00:00,270.0,274.0,10.0,12.37,,47.59359,-54.27349
2018-04-21 20:00:00+00:00,261.0,262.0,9.12,10.42,,47.59359,-54.27349
2018-04-21 20:10:00+00:00,260.0,260.0,8.57,10.2,,47.59359,-54.27349
2018-04-21 20:20:00+00:00,257.0,258.0,9.1,11.7,,47.59359,-54.27349
2018-04-21 20:30:00+00:00,258.0,261.0,9.19,10.87,,47.59359,-54.27349
2018-04-21 20:40:00+00:00,253.0,248.0,9.15,10.23,,47.59359,-54.27349
2018-04-21 20:50:00+00:00,258.0,259.0,9.76,10.89,,47.59359,-54.27349
2018-04-21 21:00:00+00:00,261.0,263.0,9.78,10.64,,47.59359,-54.27349
2018-04-21 21:10:00+00:00,263.0,259.0,10.32,11.2,,47.59359,-54.27349
2018-04-21 21:20:00+00:00,258.0,259.0,8.96,10.79,,47.59359,-54.27349
2018-04-21 21:30:00+00:00,259.0,257.0,9.15,10.02,,47.59359,-54.27349
2018-04-21 21:40:00+00:00,260.0,262.0,8.76,10.38,,47.59359,-54.27349
2018-04-21 21:50:00+00:00,258.0,257.0,8.92,9.99,,47.59359,-54.27349
2018-04-21 22:00:00+00:00,258.0,256.0,8.73,9.73,,47.59359,-54.27349
2018-04-21 22:10:00+00:00,262.0,268.0,8.63,9.88,,47.59359,-54.27349
2018-04-21 22:20:00+00:00,263.0,265.0,9.74,10.88,,47.59359,-54.27349
2018-04-21 22:30:00+00:00,266.0,265.0,9.58,10.69,,47.59359,-54.27349
2018-04-21 22:40:00+00:00,267.0,268.0,10.17,11.7,,47.59359,-54.27349
2018-04-21 22:50:00+00:00,268.0,267.0,9.68,10.98,,47.59359,-54.27349
2018-04-21 23:00:00+00:00,265.0,266.0,8.57,10.15,,47.59359,-54.27349
2018-04-21 23:10:00+00:00,268.0,273.0,9.06,10.34,,47.59359,-54.27349
2018-04-21 23:20:00+00:00,269.0,274.0,7.84,8.7,,47.59359,-54.27349
2018-04-21 23:30:00+00:00,272.0,273.0,8.7,9.76,,47.59359,-54.27349
2018-04-21 23:40:00+00:00,273.0,273.0,8.35,9.12,,47.59359,-54.27349
2018-04-21 23:50:00+00:00,271.0,271.0,9.56,10.77,,47.59359,-54.27349
